| time (UTC) | temp F | wind direction | speed knots | gust knots | rain 1hr in | rain 24hr in | rain mn in | humidity % | barometer mb |
| 20260504230808 | 70 | 140 | 5.2 | 7.8 | 0.00 | 0.00 | 0.00 | 66 | 1013.0 |
| 20260504230306 | 70 | 210 | 6.1 | 8.7 | 0.00 | 0.00 | 0.00 | 65 | 1012.7 |
| 20260504225805 | 70 | 169 | 5.2 | 7.0 | 0.00 | 0.00 | 0.00 | 66 | 1012.7 |
| 20260504225300 | 70 | 180 | 4.3 | 5.2 | 0.00 | 0.00 | 0.00 | 67 | 1012.9 |
| 20260504224758 | 70 | 162 | 7.8 | 8.7 | 0.00 | 0.00 | 0.00 | 63 | 1012.4 |
| 20260504224255 | 70 | 192 | 7.8 | 8.7 | 0.00 | 0.00 | 0.00 | 63 | 1012.6 |
| 20260504223751 | 70 | 184 | 4.3 | 6.1 | 0.00 | 0.00 | 0.00 | 65 | 1012.6 |
| 20260504223247 | 70 | 205 | 4.3 | 6.1 | 0.00 | 0.00 | 0.00 | 65 | 1012.9 |
| 20260504222744 | 71 | 166 | 6.1 | 8.7 | 0.00 | 0.00 | 0.00 | 64 | 1012.7 |
| 20260504222240 | 71 | 167 | 7.8 | 9.6 | 0.00 | 0.00 | 0.00 | 64 | 1012.8 |
| 20260504221738 | 71 | 194 | 2.6 | 4.3 | 0.00 | 0.00 | 0.00 | 62 | 1012.7 |
| 20260504221235 | 71 | 213 | 2.6 | 4.3 | 0.00 | 0.00 | 0.00 | 65 | 1012.8 |
| 20260504220732 | 71 | 165 | 3.5 | 4.3 | 0.00 | 0.00 | 0.00 | 66 | 1012.8 |
| 20260504220229 | 71 | 184 | 3.5 | 4.3 | 0.00 | 0.00 | 0.00 | 65 | 1012.6 |
| 20260504215726 | 72 | 178 | 2.6 | 2.6 | 0.00 | 0.00 | 0.00 | 64 | 1012.9 |
| 20260504215223 | 72 | 176 | 4.3 | 6.1 | 0.00 | 0.00 | 0.00 | 63 | 1012.8 |
| 20260504214719 | 71 | 195 | 4.3 | 5.2 | 0.00 | 0.00 | 0.00 | 66 | 1012.8 |
| 20260504214215 | 71 | 175 | 2.6 | 2.6 | 0.00 | 0.00 | 0.00 | 66 | 1012.8 |
| 20260504213712 | 72 | 174 | 5.2 | 7.0 | 0.00 | 0.00 | 0.00 | 63 | 1012.9 |
| 20260504213209 | 72 | 161 | 2.6 | 2.6 | 0.00 | 0.00 | 0.00 | 66 | 1012.9 |
| 20260504212706 | 72 | 137 | 3.5 | 5.2 | 0.00 | 0.00 | 0.00 | 64 | 1012.7 |
| 20260504212202 | 72 | 178 | 4.3 | 5.2 | 0.00 | 0.00 | 0.00 | 65 | 1012.9 |
| 20260504211700 | 72 | 149 | 2.6 | 2.6 | 0.00 | 0.00 | 0.00 | 66 | 1013.1 |
| 20260504211155 | 72 | 157 | 4.3 | 5.2 | 0.00 | 0.00 | 0.00 | 66 | 1012.9 |
| 20260504210653 | 72 | 192 | 7.0 | 7.8 | 0.00 | 0.00 | 0.00 | 64 | 1013.0 |
| 20260504210150 | 72 | 170 | 4.3 | 5.2 | 0.00 | 0.00 | 0.00 | 63 | 1013.0 |
| 20260504205647 | 73 | 159 | 2.6 | 2.6 | 0.00 | 0.00 | 0.00 | 61 | 1012.8 |
| 20260504205144 | 73 | 162 | 2.6 | 4.3 | 0.00 | 0.00 | 0.00 | 60 | 1012.9 |
| 20260504204643 | 73 | 160 | 2.6 | 2.6 | 0.00 | 0.00 | 0.00 | 63 | 1012.9 |
| 20260504204141 | 73 | 162 | 2.6 | 2.6 | 0.00 | 0.00 | 0.00 | 64 | 1012.9 |
| 20260504203640 | 74 | 236 | 2.6 | 2.6 | 0.00 | 0.00 | 0.00 | 57 | 1013.0 |
| 20260504203137 | 73 | 169 | 3.5 | 4.3 | 0.00 | 0.00 | 0.00 | 63 | 1012.9 |
| 20260504202637 | 74 | 153 | 1.7 | 1.7 | 0.00 | 0.00 | 0.00 | 63 | 1013.1 |
| 20260504202134 | 75 | 163 | 2.6 | 2.6 | 0.00 | 0.00 | 0.00 | 59 | 1013.2 |
| 20260504201631 | 75 | 178 | 4.3 | 5.2 | 0.00 | 0.00 | 0.00 | 54 | 1013.1 |
| 20260504201129 | 76 | 198 | 2.6 | 2.6 | 0.00 | 0.00 | 0.00 | 50 | 1013.1 |
| 20260504200626 | 77 | 149 | 5.2 | 6.1 | 0.00 | 0.00 | 0.00 | 50 | 1013.1 |
| 20260504200122 | 77 | 191 | 4.3 | 6.1 | 0.00 | 0.00 | 0.00 | 51 | 1013.0 |
| 20260504195618 | 76 | 217 | 2.6 | 2.6 | 0.00 | 0.00 | 0.00 | 53 | 1012.9 |
| 20260504195115 | 76 | 176 | 2.6 | 4.3 | 0.00 | 0.00 | 0.00 | 50 | 1013.0 |
| 20260504194612 | 76 | 180 | 3.5 | 5.2 | 0.00 | 0.00 | 0.00 | 53 | 1013.1 |
| 20260504194107 | 76 | 241 | 0.9 | 1.7 | 0.00 | 0.00 | 0.00 | 49 | 1013.0 |
| 20260504193604 | 76 | 210 | 1.7 | 2.6 | 0.00 | 0.00 | 0.00 | 48 | 1013.0 |
| 20260504193102 | 77 | 175 | 2.6 | 5.2 | 0.00 | 0.00 | 0.00 | 51 | 1013.2 |
| 20260504192600 | 77 | 189 | 0.9 | 2.6 | 0.00 | 0.00 | 0.00 | 43 | 1013.0 |
| 20260504192058 | 77 | 217 | 1.7 | 1.7 | 0.00 | 0.00 | 0.00 | 49 | 1013.4 |
| 20260504191556 | 76 | 180 | 1.7 | 1.7 | 0.00 | 0.00 | 0.00 | 53 | 1013.5 |
| 20260504191052 | 75 | 185 | 2.6 | 4.3 | 0.00 | 0.00 | 0.00 | 53 | 1013.5 |
| 20260504190548 | 75 | 149 | 2.6 | 2.6 | 0.00 | 0.00 | 0.00 | 54 | 1013.8 |
| 20260504190044 | 77 | 156 | 3.5 | 5.2 | 0.00 | 0.00 | 0.00 | 51 | 1013.6 |
| 20260504185542 | 76 | 182 | 2.6 | 2.6 | 0.00 | 0.00 | 0.00 | 52 | 1013.6 |
| 20260504185038 | 75 | 195 | 1.7 | 1.7 | 0.00 | 0.00 | 0.00 | 49 | 1014.1 |
| 20260504184533 | 76 | 166 | 2.6 | 4.3 | 0.00 | 0.00 | 0.00 | 49 | 1014.0 |
| 20260504184029 | 75 | 131 | 2.6 | 2.6 | 0.00 | 0.00 | 0.00 | 51 | 1014.0 |
| 20260504183526 | 76 | 178 | 0.9 | 0.9 | 0.00 | 0.00 | 0.00 | 48 | 1014.2 |
| 20260504183025 | 76 | 119 | 1.7 | 1.7 | 0.00 | 0.00 | 0.00 | 47 | 1014.3 |
| 20260504182521 | 75 | 158 | 1.7 | 2.6 | 0.00 | 0.00 | 0.00 | 47 | 1014.4 |
| 20260504182018 | 75 | 184 | 0.0 | 0.9 | 0.00 | 0.00 | 0.00 | 47 | 1014.4 |
| 20260504181515 | 75 | 221 | 1.7 | 4.3 | 0.00 | 0.00 | 0.00 | 50 | 1014.5 |
| 20260504181014 | 75 | 172 | 0.9 | 2.6 | 0.00 | 0.00 | 0.00 | 52 | 1014.3 |
| 20260504180512 | 74 | 84 | 0.9 | 1.7 | 0.00 | 0.00 | 0.00 | 50 | 1014.6 |
| 20260504180011 | 74 | 132 | 0.9 | 1.7 | 0.00 | 0.00 | 0.00 | 55 | 1014.6 |
| 20260504175508 | 74 | 160 | 2.6 | 2.6 | 0.00 | 0.00 | 0.00 | 53 | 1014.6 |
| 20260504175005 | 74 | 185 | 2.6 | 2.6 | 0.00 | 0.00 | 0.00 | 50 | 1014.8 |
| 20260504174502 | 74 | 89 | 0.9 | 1.7 | 0.00 | 0.00 | 0.00 | 51 | 1014.9 |
| 20260504173959 | 74 | 159 | 3.5 | 4.3 | 0.00 | 0.00 | 0.00 | 53 | 1015.0 |
| 20260504173456 | 73 | 120 | 0.9 | 0.9 | 0.00 | 0.00 | 0.00 | 54 | 1015.1 |
| 20260504172953 | 73 | 137 | 2.6 | 2.6 | 0.00 | 0.00 | 0.00 | 60 | 1015.2 |
| 20260504172449 | 73 | 169 | 2.6 | 4.3 | 0.00 | 0.00 | 0.00 | 57 | 1015.1 |
| 20260504171946 | 73 | 128 | 0.9 | 1.7 | 0.00 | 0.00 | 0.00 | 56 | 1015.2 |
| 20260504171443 | 73 | 151 | 1.7 | 1.7 | 0.00 | 0.00 | 0.00 | 56 | 1015.2 |
| 20260504170940 | 73 | 160 | 1.7 | 1.7 | 0.00 | 0.00 | 0.00 | 57 | 1015.3 |
| 20260504170436 | 72 | 157 | 2.6 | 2.6 | 0.00 | 0.00 | 0.00 | 58 | 1015.6 |
| 20260504160355 | 71 | 170 | 3.5 | 4.3 | 0.00 | 0.00 | 0.00 | 58 | 1016.0 |
| 20260504150820 | 69 | 176 | 0.0 | 1.7 | 0.00 | 0.00 | 0.00 | 60 | 1016.4 |
| 20260504150316 | 68 | 159 | 0.9 | 0.9 | 0.00 | 0.00 | 0.00 | 61 | 1016.4 |
| 20260504141247 | 66 | 229 | 0.0 | 0.9 | 0.00 | 0.00 | 0.00 | 67 | 1016.4 |
| 20260504140743 | 66 | 186 | 2.6 | 2.6 | 0.00 | 0.00 | 0.00 | 66 | 1016.2 |
| 20260504140239 | 65 | 186 | 3.5 | 4.3 | 0.00 | 0.00 | 0.00 | 68 | 1016.5 |
| 20260504130708 | 60 | 98 | 0.9 | 0.9 | 0.00 | 0.00 | 0.00 | 76 | 1017.0 |
| 20260504130203 | 60 | 153 | 0.0 | 0.0 | 0.00 | 0.00 | 0.00 | 76 | 1016.8 |
| 20260504120127 | 56 | 215 | 0.0 | 0.9 | 0.00 | 0.00 | 0.00 | 83 | 1017.2 |
| 20260504110555 | 54 | 180 | 1.7 | 2.6 | 0.00 | 0.00 | 0.00 | 86 | 1017.4 |
| 20260504100516 | 53 | 229 | 0.0 | 0.0 | 0.00 | 0.00 | 0.00 | 88 | 1016.7 |
| 20260504081904 | 50 | 323 | 0.0 | 0.0 | 0.00 | 0.00 | 0.00 | 93 | 1017.3 |
| 20260504081400 | 50 | 331 | 0.0 | 0.0 | 0.00 | 0.00 | 0.00 | 93 | 1017.2 |
| 20260504080856 | 50 | 337 | 0.0 | 0.0 | 0.00 | 0.00 | 0.00 | 93 | 1017.1 |
| 20260504080353 | 50 | 339 | 0.0 | 0.0 | 0.00 | 0.00 | 0.00 | 93 | 1017.2 |
| 20260504070321 | 51 | 328 | 0.0 | 0.0 | 0.00 | 0.00 | 0.00 | 91 | 1017.4 |
| 20260504060241 | 56 | 190 | 2.6 | 4.3 | 0.00 | 0.00 | 0.00 | 85 | 1017.2 |
| 20260504050709 | 52 | 1 | 0.0 | 0.0 | 0.00 | 0.00 | 0.00 | 88 | 1017.4 |
| 20260504050206 | 52 | 7 | 0.0 | 0.0 | 0.00 | 0.00 | 0.00 | 88 | 1017.4 |
| 20260504045703 | 52 | 7 | 0.0 | 0.0 | 0.00 | 0.00 | 0.00 | 88 | 1017.5 |
| 20260504045204 | 52 | 5 | 0.0 | 0.0 | 0.00 | 0.00 | 0.00 | 88 | 1017.4 |
| 20260504044702 | 52 | 5 | 0.0 | 0.0 | 0.00 | 0.00 | 0.00 | 88 | 1017.4 |
| 20260504044159 | 53 | 1 | 0.0 | 0.0 | 0.00 | 0.00 | 0.00 | 88 | 1017.3 |
| 20260504043655 | 53 | 73 | 0.0 | 0.0 | 0.00 | 0.00 | 0.00 | 88 | 1017.6 |
| 20260504043152 | 53 | 105 | 0.0 | 0.0 | 0.00 | 0.00 | 0.00 | 88 | 1017.4 |
| 20260504042650 | 52 | 40 | 0.0 | 0.0 | 0.00 | 0.00 | 0.00 | 87 | 1017.6 |
| 20260504042146 | 52 | 27 | 0.0 | 0.0 | 0.00 | 0.00 | 0.00 | 86 | 1017.5 |
| 20260504041642 | 53 | 32 | 0.0 | 0.0 | 0.00 | 0.00 | 0.00 | 86 | 1017.5 |
| 20260504041138 | 53 | 61 | 0.0 | 0.0 | 0.00 | 0.00 | 0.00 | 86 | 1017.4 |
| 20260504040636 | 52 | 104 | 0.9 | 0.9 | 0.00 | 0.00 | 0.00 | 87 | 1017.3 |
| 20260504040133 | 51 | 10 | 0.0 | 0.0 | 0.00 | 0.00 | 0.00 | 86 | 1017.3 |
| 20260504035629 | 52 | 344 | 0.0 | 0.0 | 0.00 | 0.00 | 0.00 | 85 | 1017.4 |
| 20260504035126 | 52 | 354 | 0.0 | 0.0 | 0.00 | 0.00 | 0.00 | 84 | 1017.3 |
| 20260504034624 | 52 | 341 | 0.0 | 0.0 | 0.00 | 0.00 | 0.00 | 84 | 1017.3 |
| 20260504034120 | 53 | 336 | 0.0 | 0.0 | 0.00 | 0.00 | 0.00 | 82 | 1017.4 |
| 20260504033618 | 53 | 345 | 0.0 | 0.0 | 0.00 | 0.00 | 0.00 | 82 | 1017.5 |
| 20260504033115 | 53 | 334 | 0.0 | 0.9 | 0.00 | 0.00 | 0.00 | 82 | 1017.4 |
| 20260504032612 | 54 | 293 | 0.0 | 0.0 | 0.00 | 0.00 | 0.00 | 83 | 1017.5 |
| 20260504032109 | 54 | 26 | 0.0 | 0.0 | 0.00 | 0.00 | 0.00 | 80 | 1017.5 |
| 20260504031606 | 54 | 260 | 0.0 | 0.0 | 0.00 | 0.00 | 0.00 | 82 | 1017.6 |
| 20260504031102 | 53 | 123 | 3.5 | 4.3 | 0.00 | 0.00 | 0.00 | 83 | 1017.7 |
| 20260504030559 | 54 | 123 | 0.9 | 1.7 | 0.00 | 0.00 | 0.00 | 84 | 1017.7 |
| 20260504030056 | 54 | 133 | 0.0 | 0.0 | 0.00 | 0.00 | 0.00 | 83 | 1017.8 |
| 20260504025553 | 54 | 133 | 1.7 | 1.7 | 0.00 | 0.00 | 0.00 | 82 | 1017.6 |
| 20260504025049 | 54 | 23 | 0.0 | 0.0 | 0.00 | 0.00 | 0.00 | 82 | 1017.9 |
| 20260504024547 | 54 | 132 | 2.6 | 4.3 | 0.00 | 0.00 | 0.00 | 81 | 1017.9 |
| 20260504024043 | 54 | 16 | 0.0 | 0.0 | 0.00 | 0.00 | 0.00 | 80 | 1018.0 |
| 20260504023540 | 54 | 156 | 2.6 | 4.3 | 0.00 | 0.00 | 0.00 | 81 | 1017.6 |
| 20260504023036 | 52 | 150 | 1.7 | 2.6 | 0.00 | 0.00 | 0.00 | 86 | 1017.5 |
| 20260504022532 | 50 | 344 | 0.0 | 0.0 | 0.00 | 0.00 | 0.00 | 82 | 1017.6 |
| 20260504022029 | 50 | 331 | 0.0 | 0.0 | 0.00 | 0.00 | 0.00 | 82 | 1017.6 |
| 20260504021526 | 48 | 352 | 0.0 | 0.0 | 0.00 | 0.00 | 0.00 | 77 | 1017.5 |
| 20260504021023 | 48 | 5 | 0.0 | 0.0 | 0.00 | 0.00 | 0.00 | 74 | 1017.5 |
| 20260504020520 | 48 | 9 | 0.0 | 0.0 | 0.00 | 0.00 | 0.00 | 75 | 1017.5 |
| 20260504020016 | 48 | 318 | 0.0 | 0.0 | 0.00 | 0.00 | 0.00 | 75 | 1017.4 |
| 20260504015513 | 48 | 113 | 0.9 | 0.9 | 0.00 | 0.00 | 0.00 | 74 | 1017.4 |
| 20260504015009 | 49 | 348 | 0.0 | 0.0 | 0.00 | 0.00 | 0.00 | 75 | 1017.2 |
| 20260504014505 | 49 | 345 | 0.9 | 0.9 | 0.00 | 0.00 | 0.00 | 74 | 1017.0 |
| 20260504014002 | 49 | 338 | 0.9 | 0.9 | 0.00 | 0.00 | 0.00 | 73 | 1017.1 |
| 20260504013500 | 49 | 340 | 0.9 | 0.9 | 0.00 | 0.00 | 0.00 | 73 | 1016.8 |
| 20260504012955 | 49 | 336 | 0.9 | 0.9 | 0.00 | 0.00 | 0.00 | 72 | 1016.5 |
| 20260504012454 | 49 | 342 | 0.0 | 0.0 | 0.00 | 0.00 | 0.00 | 71 | 1016.7 |
| 20260504011952 | 49 | 344 | 0.0 | 0.0 | 0.00 | 0.00 | 0.00 | 71 | 1016.6 |
| 20260504011448 | 49 | 353 | 0.0 | 0.0 | 0.00 | 0.00 | 0.00 | 71 | 1016.6 |
| 20260504010944 | 50 | 353 | 0.0 | 0.0 | 0.00 | 0.00 | 0.00 | 71 | 1016.3 |
| 20260504010440 | 50 | 346 | 0.0 | 0.0 | 0.00 | 0.00 | 0.00 | 72 | 1016.3 |
| 20260504005936 | 50 | 340 | 0.0 | 0.0 | 0.00 | 0.00 | 0.00 | 71 | 1016.2 |
| 20260504005433 | 50 | 346 | 0.0 | 0.0 | 0.00 | 0.00 | 0.00 | 71 | 1016.5 |
| 20260504004931 | 51 | 346 | 0.0 | 0.0 | 0.00 | 0.00 | 0.00 | 70 | 1016.2 |
| 20260504004428 | 51 | 344 | 0.0 | 0.0 | 0.00 | 0.00 | 0.00 | 69 | 1016.0 |
| 20260504003925 | 51 | 356 | 0.0 | 0.0 | 0.00 | 0.00 | 0.00 | 68 | 1016.0 |
| 20260504003421 | 51 | 334 | 0.9 | 0.9 | 0.00 | 0.00 | 0.00 | 68 | 1016.2 |
| 20260504002918 | 52 | 335 | 0.9 | 0.9 | 0.00 | 0.00 | 0.00 | 67 | 1015.9 |
| 20260504002415 | 52 | 351 | 0.9 | 0.9 | 0.00 | 0.00 | 0.00 | 66 | 1015.9 |
| 20260504001913 | 53 | 333 | 0.9 | 0.9 | 0.00 | 0.00 | 0.00 | 66 | 1015.9 |
| 20260504001410 | 53 | 340 | 0.9 | 0.9 | 0.00 | 0.00 | 0.00 | 66 | 1016.0 |
| 20260504000906 | 53 | 337 | 0.0 | 0.0 | 0.00 | 0.00 | 0.00 | 64 | 1015.8 |
| 20260504000404 | 54 | 339 | 0.0 | 0.0 | 0.00 | 0.00 | 0.00 | 66 | 1015.7 |
| 20260503235901 | 54 | 330 | 0.9 | 0.9 | 0.00 | 0.00 | 0.00 | 66 | 1015.8 |
| 20260503235359 | 55 | 321 | 0.9 | 0.9 | 0.00 | 0.00 | 0.00 | 65 | 1015.8 |
| 20260503234855 | 55 | 326 | 0.0 | 0.9 | 0.00 | 0.00 | 0.00 | 62 | 1015.8 |
| 20260503234353 | 56 | 321 | 0.9 | 0.9 | 0.00 | 0.00 | 0.00 | 62 | 1015.6 |
| 20260503233851 | 57 | 314 | 0.0 | 0.0 | 0.00 | 0.00 | 0.00 | 58 | 1015.5 |
| 20260503233347 | 58 | 314 | 0.0 | 0.0 | 0.00 | 0.00 | 0.00 | 57 | 1015.6 |
| 20260503232843 | 59 | 2 | 0.0 | 0.0 | 0.00 | 0.00 | 0.00 | 51 | 1015.5 |
| 20260503232341 | 59 | 71 | 0.0 | 0.0 | 0.00 | 0.00 | 0.00 | 51 | 1015.3 |
| 20260503231839 | 59 | 78 | 0.0 | 0.0 | 0.00 | 0.00 | 0.00 | 48 | 1015.6 |
| 20260503231336 | 59 | 293 | 0.0 | 0.0 | 0.00 | 0.00 | 0.00 | 50 | 1015.4 |